Preview of NWS' New Version of Forecast
This preview is not operational and should not be used for support decisions.

Regional Weather Roundup (RWR)

Issued by National Weather Service (NWS)

                            
000
ASUS43 KDTX 181410
RWRMI 
MICHIGAN HOURLY REGIONAL WEATHER ROUNDUP
NATIONAL WEATHER SERVICE DETROIT/PONTIAC MI
900 AM EST MON FEB 18 2019

NOTE: "FAIR" INDICATES FEW OR NO CLOUDS BELOW 12,000 FEET WITH NO
SIGNIFICANT WEATHER AND/OR OBSTRUCTION TO VISIBILITY.

MIZ047>049-052>055-059>063-066>070-074>076-081>083-181500-
SOUTHEAST LOWER MICHIGAN
  
CITY           SKY/WX    TMP DP  RH WIND       PRES   REMARKS
ADRIAN         CLOUDY    20  15  81 N9        30.12R WCI   9          
ALMA             N/A     17  10  76 MISG        N/A                   
ANN ARBOR      LGT SNOW  19  15  84 NW10      30.10R FOG     WCI   7  
BAD AXE        CLOUDY    20  15  79 N8        30.11R WCI  11          
CARO           FLURRIES  19  16  87 NW9       30.12R WCI   8          
DETROIT CITY   LGT SNOW  21  16  81 NW6       30.10R WCI  13          
DETROIT        LGT SNOW  20  14  77 NW9       30.11R WCI   9          
FLINT          CLOUDY    18  13  80 N10       30.12R WCI   6          
GROSSE ILE     LGT SNOW  22  17  81 NW8       30.10R WCI  12          
HILLSDALE      FLURRIES  18  13  80 N7        30.10R WCI   9          
HOWELL         CLOUDY    18  14  83 N7        30.11R WCI   9          

CITY           SKY/WX    TMP DP  RH WIND       PRES   REMARKS
JACKSON        CLOUDY    18  14  84 NW6       30.12R WCI  10          
LAMBERTVILLE   FLURRIES  21  17  85 N7        30.13R WCI  13          
LANSING        CLOUDY    17  14  88 N9        30.15R WCI   6          
LAPEER         FAIR      20  14  78 N6        30.10R WCI  13          
MASON          FAIR      17  14  86 N6        30.13R WCI   9          
MONROE         LGT SNOW  21  19  94 NW6       30.11R WCI  13          
PONTIAC        FLURRIES  19  15  84 NW8       30.07R WCI   9          
PORT HOPE        N/A     21  14  74 N16       30.11R WCI   7          
PORT HURON     LGT SNOW  21  18  86 NW6       30.09R WCI  14          
TRI CITIES     CLOUDY    18  10  71 N14       30.16R WCI   4          
MIDLAND        FAIR      19  10  68 N7        30.17R WCI   9          
TROY           LGT SNOW  22  16  78 N7        30.11R WCI  13          
SAGINAW HB     LGT SNOW  19  12  73 N10       30.15R WCI   8          
$$
MIZ043>046-050>051-056>058-064>065-071>073-077>080-181500-
SOUTHWEST LOWER MICHIGAN
  
CITY           SKY/WX    TMP DP  RH WIND       PRES   REMARKS
BATTLE CREEK   CLOUDY    17  13  84 N7        30.15R WCI   8          
BENTON HARBOR  PTSUNNY   20  14  77 VRB3      30.20R                  
BIG RAPIDS     FAIR      16  10  80 N6        30.17R WCI   7          
COLDWATER      CLOUDY    19  15  88 N5        30.14R WCI  12          
FREMONT        FAIR      15   9  78 N7        30.20R WCI   5          
HOLLAND        FAIR      19  12  74 N7        30.21R WCI  10          
GRAND RAPIDS   FLURRIES  16  10  77 N7        30.17R WCI   6          
IONIA          FAIR      17  11  77 N6        30.15R WCI   8          
KALAMAZOO      CLOUDY    18  14  84 N9        30.17R WCI   7          
LUDINGTON      FAIR      17  10  73 NE3       30.22R                  
MARSHALL       PTSUNNY   18  15  90 CALM      30.14R                  
MOUNT PLEASANT FAIR      17   8  66 N5        30.18R WCI  10          
MUSKEGON       PTSUNNY   18  10  71 N6        30.21R WCI  10          
SOUTH HAVEN    LGT SNOW  19  15  84 N5        30.20R WCI  13          
$$
MIZ016>042-181500-
NORTHERN LOWER MICHIGAN
  
CITY           SKY/WX    TMP DP  RH WIND       PRES   REMARKS
ALPENA         LGT SNOW  14   8  77 N13       30.21R WCI   0          
BEAVER ISLAND  FAIR       8   2  78 NE5       30.28R WCI  -1          
BELLAIRE       FAIR       6   2  86 CALM      30.25R                  
CADILLAC       FAIR      11   6  80 N5        30.15R WCI   3          
CHARLEVOIX     FAIR      13   5  73 NE3       30.28R                  
FRANKFORT      FAIR      17  11  76 CALM      30.24R                  
GAYLORD        LGT SNOW   9   3  77 VRB3      30.16R                  
GRAYLING       FAIR       8   6  90 N3        30.17R                  
HARBOR SPRINGS FAIR      10   2  71 N6        30.24R WCI   0          
HOUGHTON LAKE  PTSUNNY   12   7  80 N7        30.17R WCI   1          
MANISTEE       FAIR      17  12  80 E3        30.23R                  
OSCODA         FLURRIES  18  10  71 N13       30.17R WCI   5          
PELLSTON       FAIR       5  -1  76 N7        30.26R WCI  -7          
ROGERS CITY    CLOUDY    12   7  80 N8        30.25R WCI   1          
TRAVERSE CITY  PTSUNNY   14   8  77 NE5       30.23R WCI   6          
$$
MIZ007>008-015-181500-
EASTERN UPPER MICHIGAN
  
CITY           SKY/WX    TMP DP  RH WIND       PRES   REMARKS
KINROSS        FAIR       3  -4  72 N7        30.27R WCI  -9          
MACKINAC ISLAN FAIR       6  -1  74 N8        30.26R WCI  -7          
NEWBERRY       CLOUDY     2  -4  76 MISG      30.27R                  
S. S. MARIE    FAIR       4  -6  63 N5        30.28R WCI  -5          
MUNISING         N/A     14   7  73 N16       30.29R WCI  -2          
$$
MIZ004>006-011>014-085-181500-
CENTRAL UPPER MICHIGAN
  
CITY           SKY/WX    TMP DP  RH WIND       PRES   REMARKS
MANISTIQUE     CLOUDY    10   1  65 NE6       30.27R WCI   1          
ESCANABA       PTSUNNY   13   9  84 NW5       30.29R WCI   5          
MENOMINEE      FLURRIES  13   9  84 N10       30.30R WCI   0          
SAWYER-GWINN   LGT SNOW  12   7  79 N14       30.24R WCI  -3          
$$
MIZ001>003-009>011-084-181500-
WESTERN UPPER MICHIGAN
  
CITY           SKY/WX    TMP DP  RH WIND       PRES   REMARKS
IRON MOUNTAIN  FAIR       6   1  80 NW12      30.26R WCI  -9          
HOUGHTON       MOCLDY     4  -4  69 N3        30.32R                  
COPPER HARBOR    N/A      8   1  73 NE10      30.36R WCI  -6          
IRONWOOD       FLURRIES   8   5  87 NE3       30.34R                  
$$

ABBREVIATIONS USED IN REMARKS
   TC - TEMPERATURE IN CELSIUS
  WCI - WIND CHILL INDEX
   HX - HEAT INDEX
  VSB - VISIBILITY